Theta_e
266 266 266 266 266 266 266 267 267 267 267 266 265 265 264 264 264 264 264 264 264 263 263 263 263 263 263 263 263 262 262 262 263 263 262 262 263 263 263 263 262 262 263 263 264 265 265 265 265 266 267 266 267 267 268 268 269 269 270 270 269 270 270 269 267 267 270 273 273 272 274 275 273 273 273 274 274 275 276 275 275 275 275 273 274
265 265 265 265 265 265 265 265 265 265 264 263 263 263 263 263 263 263 262 262 263 262 262 262 262 262 262 261 262 262 262 262 262 262 261 261 261 262 262 262 261 261 262 261 262 263 264 264 264 265 266 266 266 266 267 268 268 268 268 269 269 269 271 269 267 267 266 270 270 272 271 274 272 275 270 272 274 274 273 274 274 275 274 275 274
265 265 264 264 265 265 264 263 263 263 262 262 261 262 262 262 262 261 261 261 262 261 261 261 261 261 260 260 261 260 261 261 261 261 260 261 260 261 261 261 260 260 260 260 261 262 262 263 263 264 265 265 265 266 267 267 267 267 267 268 267 268 269 270 268 266 267 267 270 269 271 271 272 272 273 271 273 273 272 273 274 274 274 274 274
264 264 263 263 264 263 263 263 262 262 261 261 260 261 261 261 261 260 261 260 260 260 260 260 260 260 259 259 259 259 259 259 259 260 259 259 259 259 260 260 260 259 259 260 260 260 260 261 262 264 264 264 264 265 266 266 266 266 266 266 267 266 267 268 269 268 267 266 268 269 269 270 270 273 273 273 273 272 272 273 273 273 273 274 274
263 263 262 263 263 262 262 261 261 261 260 260 260 260 260 260 260 259 260 259 259 259 259 260 259 259 258 258 258 258 258 258 258 258 258 259 259 258 259 259 259 259 259 259 261 260 260 261 262 263 262 262 263 264 264 264 265 265 264 265 265 266 266 267 267 268 267 266 267 269 270 270 271 271 272 271 271 272 271 271 271 272 272 272 272
262 261 261 262 261 261 261 260 260 260 259 259 259 259 259 259 259 258 259 258 258 258 258 258 258 258 257 258 258 257 257 257 257 257 257 258 258 258 257 258 258 258 259 259 260 261 262 262 261 261 260 260 261 262 263 264 264 264 264 264 265 266 266 266 266 266 266 265 266 266 268 267 268 269 270 271 270 268 267 268 269 268 268 267 268
261 260 260 261 260 260 259 259 259 258 258 258 258 258 257 257 257 257 257 257 257 257 257 257 257 257 256 257 256 257 256 256 256 256 256 257 256 256 257 258 259 259 260 261 262 263 262 261 260 260 259 261 262 263 263 261 261 261 262 262 263 263 263 264 265 265 265 265 265 265 265 266 268 267 270 270 268 268 266 267 263 264 264 265 265
260 259 260 260 259 258 258 258 258 257 257 257 257 256 256 256 256 256 256 256 256 256 256 256 256 256 256 256 256 256 255 255 255 255 256 256 257 258 260 261 262 262 263 263 262 261 261 260 260 261 263 263 262 261 260 258 259 257 259 260 260 261 260 261 262 263 264 265 265 264 265 265 266 267 269 268 266 265 266 265 263 264 264 264 265
259 259 259 258 257 258 257 257 257 256 256 256 255 255 255 255 255 255 255 255 255 255 256 256 255 255 255 255 255 255 255 254 255 255 255 257 259 260 261 262 262 261 261 261 261 261 261 262 262 262 262 262 263 262 262 262 260 258 257 257 257 258 258 259 260 261 261 262 262 264 265 265 266 266 264 265 264 263 263 264 262 265 264 262 262
257 258 258 257 256 256 256 256 255 255 255 254 254 254 254 254 254 253 254 254 254 254 254 254 254 254 253 253 253 253 253 254 255 257 261 261 262 262 262 262 262 262 262 262 263 262 260 260 259 261 261 261 261 261 261 262 262 260 257 255 255 256 257 257 257 258 259 260 261 262 261 261 263 263 263 263 265 264 263 263 263 263 264 260 262
256 257 257 257 255 255 255 254 254 253 254 253 253 253 253 253 252 252 253 253 253 254 254 253 253 253 253 252 252 252 253 253 256 263 265 265 263 262 262 262 262 262 262 261 259 259 258 257 257 258 259 259 259 260 260 261 261 261 261 261 261 259 256 257 257 258 258 259 261 262 261 261 261 261 259 261 263 263 262 263 261 262 260 258 256
256 256 255 255 254 254 253 253 253 252 252 252 252 252 252 251 251 252 252 252 253 253 252 253 252 252 252 252 251 252 252 254 260 262 264 265 264 261 261 261 260 260 260 258 257 256 256 255 255 255 256 256 256 255 258 260 261 261 261 261 261 261 262 260 258 258 258 259 259 261 261 259 258 258 258 260 259 262 261 261 259 259 258 258 258
255 253 253 253 252 252 252 252 251 251 251 251 251 251 250 250 250 251 250 251 252 252 252 252 252 252 251 251 251 251 251 253 260 262 263 264 263 261 260 260 259 258 257 256 256 255 255 255 255 255 255 259 259 256 253 254 258 259 260 260 260 260 261 261 263 261 260 260 259 260 260 257 257 257 258 257 259 257 256 257 256 259 259 259 259
253 252 252 252 251 251 251 251 250 250 250 250 250 249 249 249 250 250 250 251 251 251 251 251 251 251 251 250 250 250 250 253 259 261 263 263 264 261 258 258 257 256 256 256 256 255 255 255 255 255 255 254 254 254 253 253 253 253 254 254 254 256 259 260 260 261 261 260 259 259 260 258 257 259 258 259 258 256 257 257 260 257 256 256 258
251 251 250 251 250 250 250 250 249 249 249 249 248 248 248 248 249 249 249 250 250 250 250 250 250 250 250 250 249 249 250 254 259 261 262 263 262 260 257 257 256 256 256 256 256 256 256 256 255 255 255 255 255 256 254 253 253 253 254 254 255 255 256 256 256 256 257 257 258 258 260 260 258 258 257 256 259 260 261 258 256 254 254 253 252
250 250 249 249 249 249 249 248 248 248 247 247 247 247 247 247 247 248 249 249 250 250 249 250 249 249 249 249 249 248 249 255 258 260 260 261 255 256 255 254 254 253 253 253 254 254 254 254 254 255 255 255 256 258 259 258 256 255 255 255 256 256 256 259 264 263 261 260 259 259 259 260 263 261 262 262 260 258 256 253 251 251 250 249 250
249 248 248 248 248 248 248 247 246 246 246 246 246 246 246 246 247 248 247 248 249 248 248 248 248 248 248 248 248 248 249 252 256 258 259 258 254 254 254 253 252 252 251 252 252 253 253 253 254 254 254 253 257 259 261 261 258 257 257 258 258 257 255 255 261 264 265 265 265 265 265 264 265 265 265 264 261 256 250 250 250 250 249 249 251
248 247 247 248 248 247 247 246 245 245 245 245 245 246 246 247 247 248 247 247 246 247 247 247 248 248 248 247 248 248 248 250 252 256 258 252 253 253 252 251 250 251 251 251 252 252 252 256 255 254 253 254 258 260 263 261 259 258 255 252 250 250 250 252 253 255 261 261 262 263 262 261 260 260 261 262 260 257 250 247 250 247 245 248 247
247 246 247 247 247 247 246 246 245 245 244 244 244 244 245 246 246 247 246 246 246 247 247 246 246 247 247 247 249 248 247 248 250 255 257 251 251 251 251 250 249 249 250 250 251 251 251 253 254 254 255 256 258 261 262 261 255 253 253 250 249 249 251 249 251 251 251 252 252 253 253 254 252 252 253 256 256 256 250 249 248 247 247 247 248
246 246 246 246 246 246 246 245 244 244 244 244 244 244 245 245 246 246 245 246 245 245 246 245 245 245 247 247 247 247 246 247 249 254 256 251 250 250 251 250 248 249 249 250 250 250 250 250 252 254 255 255 258 258 262 263 256 255 255 252 250 248 250 250 252 251 248 248 249 249 249 250 250 250 249 250 251 253 254 251 249 248 248 248 248
246 246 246 245 245 245 245 244 243 243 243 243 244 244 244 245 245 244 244 244 244 244 244 244 244 245 246 246 246 246 247 247 247 250 255 252 247 250 250 249 249 250 250 250 249 248 249 249 250 252 253 254 256 259 261 262 260 256 256 254 253 253 252 245 250 253 246 248 248 248 248 248 248 248 248 249 250 251 250 251 249 248 249 249 248
245 245 245 244 244 244 243 243 243 243 243 243 243 243 244 244 244 243 243 243 243 243 243 244 244 244 245 245 245 245 247 248 247 249 251 252 247 249 250 250 251 250 250 249 248 247 248 249 249 251 253 254 256 259 259 260 259 256 257 259 259 256 252 248 245 244 243 244 244 245 245 246 246 246 247 247 248 250 249 248 247 248 249 248 249
244 244 244 243 242 242 242 242 242 242 242 243 242 242 243 243 242 243 242 242 242 241 242 243 243 243 243 244 244 245 245 246 248 248 249 251 249 247 250 251 252 251 249 248 248 248 249 249 250 252 254 255 255 258 258 258 256 257 259 258 255 254 251 246 248 242 242 242 243 242 243 243 243 244 245 245 246 246 247 247 247 248 249 250 251
243 242 242 242 241 241 241 241 241 241 242 242 242 241 241 242 242 242 242 241 241 241 242 242 242 242 242 243 244 244 245 245 246 248 248 249 250 246 247 251 252 250 250 249 249 249 249 249 251 254 254 256 255 258 257 256 255 256 255 254 253 251 245 244 244 243 244 243 242 241 241 242 242 243 244 245 246 247 247 247 247 248 248 248 249
241 241 240 240 240 240 240 240 240 241 241 242 240 241 241 241 240 241 241 241 241 241 241 242 242 242 242 242 243 243 244 244 244 246 248 248 249 250 250 250 251 251 249 249 249 249 251 252 253 253 254 255 256 256 253 254 254 253 252 251 250 243 243 241 242 240 241 241 241 241 241 243 243 245 247 246 247 247 246 246 246 247 248 248 248
240 240 239 240 240 240 239 239 240 241 241 241 240 241 240 240 240 240 241 241 241 241 241 242 242 242 242 242 243 243 244 243 243 244 246 247 247 248 250 250 250 250 250 249 250 251 251 252 252 252 253 253 252 250 248 249 251 251 250 248 241 242 242 240 241 240 240 241 242 242 243 242 244 244 245 246 244 244 244 245 245 246 245 247 247
239 239 239 239 239 239 238 239 241 241 240 240 240 240 240 240 239 240 240 240 240 241 241 242 242 242 242 242 242 243 243 242 243 243 244 245 245 247 248 248 249 249 248 247 249 248 249 250 251 252 252 253 252 250 249 248 246 245 241 241 242 241 243 243 242 241 242 241 241 241 243 243 243 244 243 242 244 244 244 246 245 245 246 246 246
239 238 238 238 238 239 239 242 241 239 240 240 239 239 240 240 239 240 240 240 240 240 241 241 241 242 241 242 242 242 241 241 242 243 244 246 247 247 247 247 246 246 246 247 248 249 249 250 250 247 245 245 245 243 242 242 242 242 241 241 241 242 246 248 247 241 240 239 240 240 242 242 242 242 243 242 243 244 244 245 245 245 246 246 245
238 237 238 238 238 240 240 239 239 239 239 239 239 239 239 239 240 241 241 241 242 242 242 242 243 242 242 242 241 241 241 241 243 247 247 248 247 247 246 246 247 247 248 250 249 248 248 246 242 244 243 243 243 242 241 242 242 241 239 242 240 241 240 239 240 241 241 240 241 241 242 242 242 241 242 242 242 243 244 243 245 244 245 243 244
236 237 238 237 238 239 239 239 239 239 239 239 239 239 243 244 243 242 241 245 245 246 246 244 244 244 243 242 242 242 242 243 247 248 248 248 248 248 248 249 249 248 249 249 249 244 243 241 241 241 242 241 241 241 241 239 241 241 240 243 242 240 240 240 239 241 241 241 241 241 241 241 241 241 241 242 243 242 244 246 244 244 243 243 243
236 237 238 237 239 240 239 238 239 239 239 238 238 238 239 241 244 245 245 245 245 246 246 246 246 246 245 243 244 246 246 246 247 247 248 248 248 248 248 248 248 248 249 247 244 241 241 241 241 239 239 238 239 238 239 238 239 238 239 239 238 240 242 240 239 241 241 241 240 240 241 240 241 241 241 242 243 243 241 242 242 243 242 243 242
235 236 236 237 239 240 238 238 239 238 238 238 238 238 238 238 239 243 244 244 245 245 245 246 246 246 246 245 244 243 245 246 246 247 247 247 247 248 248 248 248 248 248 247 241 240 239 239 239 238 238 238 238 238 237 237 237 236 237 238 240 239 240 241 242 238 240 239 239 240 240 240 241 241 242 242 244 243 242 242 241 242 243 242 243
234 235 236 237 238 239 239 238 238 238 237 238 238 238 237 238 238 238 241 244 244 244 244 245 245 245 245 245 245 245 245 245 246 246 246 246 247 247 247 247 247 246 246 241 236 238 238 237 237 237 236 236 237 236 237 236 237 238 236 238 239 239 239 240 241 239 240 240 240 240 240 241 240 241 242 242 242 241 242 242 242 241 242 241 242
233 233 236 238 237 237 237 237 237 237 237 237 237 238 238 238 237 238 238 238 240 242 243 243 244 244 244 244 244 245 245 245 245 245 246 246 247 247 246 245 245 245 244 238 237 237 236 237 237 237 236 236 237 237 237 237 238 238 238 238 239 238 239 239 236 239 239 240 240 240 240 239 240 240 239 240 240 240 241 241 241 240 240 241 242
234 237 240 240 236 237 237 237 237 237 237 238 238 238 238 238 239 238 237 237 237 237 238 239 242 243 242 242 243 244 244 244 244 245 246 246 246 246 245 240 238 239 239 237 237 236 236 237 237 237 236 236 237 237 238 236 237 238 238 239 239 239 239 239 240 238 240 239 239 239 239 240 239 240 240 240 240 239 239 240 240 241 241 241 242
234 235 235 237 237 236 237 237 237 237 237 237 238 239 239 238 238 238 238 238 237 237 238 238 239 241 242 243 243 243 243 244 244 245 245 246 245 244 239 237 237 237 238 238 237 238 237 237 236 238 236 236 236 237 237 238 238 238 237 237 239 239 239 238 239 239 238 239 239 240 241 239 239 239 237 238 238 239 239 240 240 241 243 243 243
234 235 235 236 236 237 237 237 237 238 240 240 239 238 238 238 238 238 237 237 237 238 238 238 238 239 240 240 242 242 243 243 244 244 245 244 244 242 235 236 236 236 237 237 238 238 237 237 237 236 237 237 236 237 237 238 238 238 239 239 238 238 237 236 239 239 239 239 239 239 236 238 238 237 237 238 239 239 239 240 241 243 244 244 245
234 235 236 237 237 238 236 238 238 241 239 238 238 237 237 237 237 238 237 237 238 237 237 237 238 237 237 238 241 240 240 243 243 243 242 241 240 236 236 235 237 236 237 237 237 236 237 238 237 237 237 237 237 238 238 238 238 238 238 238 238 238 241 241 241 240 239 238 238 238 238 238 238 238 239 239 239 239 240 241 240 240 242 243 243
234 239 240 241 241 239 237 239 239 238 238 238 237 237 238 238 237 237 237 236 236 236 237 237 236 237 237 238 238 240 241 239 239 238 239 238 238 236 236 236 236 237 237 237 237 237 237 237 238 238 238 238 238 238 238 238 238 238 238 237 238 238 238 237 237 237 237 237 238 237 237 237 237 237 238 238 238 239 239 240 240 240 241 241 242
237 235 238 240 239 240 239 239 238 238 238 237 237 237 237 237 236 237 236 236 236 236 236 237 237 237 238 238 238 240 239 239 239 238 238 238 238 238 236 236 237 237 237 237 237 237 237 237 238 237 237 237 237 237 238 238 238 238 238 237 237 237 238 238 237 237 237 238 238 238 238 238 238 238 237 238 239 239 239 240 241 242 242 242 243
235 236 239 240 240 239 238 238 237 237 236 237 237 236 236 237 237 237 236 236 236 237 237 237 237 238 238 240 242 242 240 239 239 238 238 238 238 238 238 238 238 238 238 238 238 238 238 238 238 238 238 238 238 238 238 238 238 238 238 238 238 238 238 238 238 238 238 238 238 238 238 238 239 238 238 239 242 242 242 242 242 242 243 243 243
236 237 237 238 238 237 236 238 238 239 237 237 237 236 237 237 237 237 237 237 237 237 237 237 237 238 240 241 242 242 240 238 238 238 238 238 238 238 238 239 239 239 239 239 239 239 239 239 240 240 240 240 240 240 240 239 239 239 239 239 239 239 239 240 240 239 239 239 239 239 239 239 240 241 241 243 240 240 240 241 241 241 241 242 242
237 237 237 237 238 237 237 238 237 236 237 237 237 238 239 238 236 237 236 237 237 237 237 237 238 238 239 240 241 241 239 237 238 238 238 238 239 239 239 240 240 240 240 241 241 240 240 240 240 240 240 241 241 241 241 241 241 241 240 240 240 240 240 240 241 241 241 240 240 240 241 241 241 241 241 241 241 241 241 241 241 241 241 241 241
237 237 238 238 238 237 237 235 237 237 236 238 239 238 238 237 236 236 236 236 236 237 237 237 237 238 238 239 239 238 238 238 238 238 239 239 239 240 240 240 241 241 241 242 242 242 242 241 241 242 242 242 242 242 242 242 242 241 241 241 241 241 241 241 242 242 242 242 242 242 242 242 242 242 242 243 242 242 242 241 241 241 242 241 241
235 237 237 237 237 237 237 236 237 237 238 238 236 237 237 235 236 236 236 236 237 237 237 237 238 238 238 238 238 238 238 238 239 239 239 239 240 240 241 241 241 242 242 242 243 243 242 242 242 242 242 243 243 243 243 244 244 243 243 242 242 242 242 242 243 243 244 243 243 243 243 243 242 242 241 242 242 241 242 242 242 243 242 242 241
236 236 237 236 237 237 237 237 238 237 236 236 236 236 237 237 236 236 237 237 237 237 237 238 238 238 238 238 238 239 238 239 239 239 240 240 240 241 241 242 242 242 243 243 243 243 243 243 243 243 243 243 244 244 244 244 244 244 244 244 243 243 244 244 244 244 244 244 243 243 243 243 243 243 243 243 243 243 242 242 242 242 242 242 242
235 235 237 236 237 237 237 238 237 237 237 237 237 237 237 237 237 237 237 238 238 238 237 237 237 237 238 238 238 238 239 239 239 240 240 240 241 241 242 242 243 243 243 244 244 244 244 244 244 244 244 244 244 244 244 244 245 245 245 245 245 245 245 245 245 245 245 245 245 244 244 243 243 243 244 244 243 243 243 242 242 242 242 242 242
236 237 236 237 236 236 237 236 237 238 237 237 237 237 237 237 237 237 237 237 237 237 237 237 237 238 238 238 239 239 239 240 240 240 241 241 241 242 242 243 243 243 244 244 244 244 244 244 244 245 244 245 244 244 245 245 245 245 245 246 246 246 246 246 246 246 246 246 245 245 245 244 244 244 244 244 243 243 243 242 243 243 242 242 242
237 236 237 237 237 237 237 237 237 237 237 237 237 237 237 237 237 237 237 237 237 237 237 237 237 238 238 238 239 239 239 240 240 240 241 241 242 242 243 243 243 243 244 244 244 244 245 245 245 245 245 245 245 245 245 246 246 246 246 246 247 247 247 247 247 247 247 247 247 246 246 246 245 245 245 244 244 244 244 243 243 243 243 243 243
237 238 237 237 238 238 237 236 237 236 236 236 236 236 237 237 237 237 237 237 237 237 237 238 238 238 238 238 239 239 239 240 240 240 241 242 242 243 243 243 243 243 244 244 244 245 245 245 245 245 246 246 246 246 246 246 247 247 247 247 248 248 248 248 248 248 248 247 247 246 246 245 245 245 245 244 244 244 243 243 243 243 243 243 243
239 238 237 237 237 237 237 236 237 237 236 236 236 236 237 237 237 237 237 237 237 237 238 238 238 238 238 238 239 239 239 240 240 241 241 241 242 242 243 243 243 243 244 244 244 245 245 245 246 246 246 246 246 246 246 247 247 247 247 248 248 248 248 248 247 248 248 248 247 246 246 245 245 244 244 244 244 244 244 244 244 244 244 244 244
Wind_Speed
10 9 9 9 10 11 10 9 10 9 10 11 10 10 10 10 9 8 8 9 8 8 9 8 9 8 8 8 9 8 9 8 8 7 7 7 7 7 7 8 7 7 8 8 8 8 7 7 7 7 7 7 6 6 6 6 5 5 5 4 4 4 4 5 9 12 11 5 4 4 5 6 7 1 5 5 2 2 3 2 2 3 3 3 3
9 9 9 9 11 10 11 10 11 11 11 11 11 10 9 9 8 8 8 9 8 8 9 8 8 9 8 9 8 8 8 8 8 7 7 8 8 7 7 8 9 8 8 8 8 7 7 8 7 7 7 6 7 7 6 5 6 5 5 5 5 5 4 5 7 9 14 9 5 6 5 2 6 6 1 4 6 3 5 4 2 2 3 4 4
10 10 10 10 11 11 10 10 11 11 11 9 10 10 9 9 8 9 8 9 7 8 9 8 8 8 8 8 8 8 8 8 7 8 8 8 8 8 8 8 9 9 8 8 8 7 6 8 8 7 6 7 7 7 6 6 6 5 6 5 6 6 6 6 6 9 11 12 9 8 7 4 5 7 4 2 4 5 6 7 6 5 3 5 5
10 11 10 10 10 10 10 10 11 10 10 9 10 10 9 8 9 9 8 9 9 8 9 10 9 9 9 10 9 8 9 8 8 8 8 8 8 9 9 9 8 8 8 8 8 7 7 7 7 7 7 8 7 7 6 6 5 6 6 6 6 7 7 7 8 8 9 12 10 8 5 8 6 7 6 5 6 6 6 6 6 7 7 6 5
10 10 11 10 10 10 10 9 10 10 10 9 10 10 10 9 9 10 10 9 10 8 9 9 8 8 8 10 9 9 9 10 9 9 8 8 8 8 8 8 9 9 8 9 8 8 8 8 6 6 7 8 8 8 7 7 7 6 6 6 6 6 7 7 7 8 9 11 11 8 6 5 6 6 6 8 6 5 5 5 5 5 5 5 3
10 10 10 8 9 10 9 9 10 10 9 9 10 10 9 10 9 9 10 10 10 8 9 8 8 8 9 8 9 9 9 9 9 9 9 9 9 8 8 8 8 9 9 9 8 8 8 6 6 8 8 8 7 8 7 6 6 6 7 6 6 7 8 8 8 8 9 10 11 11 8 7 6 6 6 8 8 6 3 3 2 2 1 3 3
9 9 9 7 7 8 8 8 8 8 8 8 8 8 9 9 9 10 10 9 10 8 9 9 7 8 8 7 8 8 8 7 8 9 9 10 10 10 10 9 9 9 9 10 8 6 5 8 9 8 6 8 8 5 4 5 5 5 7 7 7 9 9 8 8 8 9 9 9 10 10 8 7 8 8 1 2 2 0 3 1 2 2 2 4
8 8 7 6 7 8 8 8 8 8 7 8 8 8 8 8 9 9 9 9 9 9 9 9 8 8 8 7 8 7 6 7 6 6 7 9 10 11 11 9 10 9 8 7 8 10 9 9 9 7 5 3 4 4 4 4 5 4 5 5 6 7 7 8 9 9 9 7 8 9 8 8 6 3 3 1 3 3 1 1 2 3 3 2 0
8 8 7 7 8 8 8 8 8 9 9 9 9 10 10 10 10 10 10 9 8 9 8 8 8 7 6 7 7 7 6 7 5 7 10 11 11 10 9 10 11 11 11 10 9 10 8 2 4 4 7 11 13 11 10 9 6 5 5 4 4 6 6 7 8 8 9 9 9 9 8 8 6 2 1 2 3 3 2 3 2 4 2 1 5
8 8 7 7 8 8 7 8 8 8 9 9 10 10 10 10 10 9 9 9 8 8 6 7 7 7 8 8 7 7 7 5 11 21 20 14 12 11 10 9 9 10 10 9 6 4 5 5 6 10 12 13 13 13 13 12 11 6 5 4 4 6 6 7 7 7 8 10 9 8 8 7 5 3 0 2 2 3 6 5 2 4 5 4 5
8 7 8 8 8 8 8 8 8 9 9 10 10 11 11 10 10 9 9 9 9 9 9 9 8 8 8 9 9 8 8 9 22 24 24 25 16 12 11 10 9 8 9 6 4 6 6 8 8 8 9 10 11 12 12 12 12 13 13 13 10 7 6 8 9 7 8 9 9 9 8 9 7 4 1 3 2 4 3 3 2 3 4 6 7
7 8 9 8 9 9 8 9 9 9 10 11 11 11 11 10 10 10 10 11 10 9 9 9 9 8 8 9 8 8 7 14 24 25 25 25 22 14 11 10 9 8 6 6 7 7 8 7 5 6 7 7 8 7 10 12 13 14 15 15 16 18 16 11 9 9 9 10 10 10 7 5 5 4 4 3 2 4 3 3 3 4 5 5 4
7 8 9 8 9 9 9 9 9 10 10 10 10 10 10 10 10 10 10 10 9 9 9 10 9 9 9 9 8 8 7 15 23 24 24 24 23 18 9 11 9 7 8 9 9 8 7 7 6 6 6 11 10 6 6 7 11 14 15 16 17 19 19 19 19 13 9 10 10 11 9 5 7 5 4 2 3 3 3 5 3 5 4 4 3
8 8 9 9 9 10 9 9 10 10 10 11 11 11 11 10 10 9 9 10 10 10 9 10 10 9 8 9 9 8 9 15 24 24 23 24 24 20 11 11 9 9 9 9 8 8 7 7 8 8 6 6 6 7 7 7 8 8 9 9 9 12 15 18 18 19 15 10 9 11 11 6 8 6 5 3 3 4 5 5 3 2 1 2 4
8 8 9 9 9 10 10 9 10 10 10 11 10 10 11 10 11 10 9 10 10 10 9 10 9 9 9 9 9 10 9 19 23 24 24 24 25 18 12 11 9 8 9 9 10 8 8 8 8 8 8 7 7 8 8 8 9 8 10 10 11 10 10 10 10 10 9 8 10 12 12 9 7 7 5 3 3 3 1 1 1 1 2 3 3
8 8 9 9 9 10 10 10 10 10 11 10 11 11 11 11 11 11 9 9 8 8 8 10 10 10 10 10 10 11 10 19 22 23 24 23 18 12 10 10 9 8 8 8 8 7 7 7 7 8 8 8 9 15 14 11 9 11 12 11 11 10 10 11 17 16 11 10 12 12 9 7 7 1 2 1 4 5 3 2 3 1 3 3 5
9 9 9 9 10 9 10 9 9 10 10 10 11 11 11 11 9 9 8 10 10 10 9 9 9 10 11 10 10 10 9 15 21 22 23 20 15 10 10 8 8 9 7 7 7 7 6 6 7 7 8 7 12 17 17 16 10 13 14 12 9 5 3 5 8 9 10 14 13 10 11 15 16 15 14 13 7 5 6 6 6 1 6 5 5
8 8 9 9 8 8 9 9 9 9 9 10 10 10 10 9 9 9 10 11 10 10 9 9 9 9 10 10 10 11 10 14 20 21 22 18 16 11 9 9 8 8 8 7 7 7 7 14 13 8 8 9 16 19 19 16 11 7 4 2 5 3 4 4 5 7 12 11 13 14 14 15 15 14 13 13 10 6 6 2 4 4 1 4 4
8 8 8 8 7 7 8 8 8 9 9 9 9 9 9 8 9 9 8 8 9 9 9 8 8 8 8 9 14 13 9 11 18 21 22 17 16 9 9 8 7 7 8 8 8 6 5 9 14 15 12 14 21 20 20 17 5 1 3 1 2 4 2 3 4 7 8 9 9 10 10 9 7 6 6 10 8 6 2 1 1 1 2 2 4
7 6 7 7 7 8 8 8 8 8 9 8 8 7 8 7 9 9 8 8 8 8 8 8 9 8 8 8 8 9 10 10 13 23 23 18 18 14 9 8 8 9 8 8 6 5 6 6 10 15 21 21 22 22 20 19 5 4 2 2 4 2 1 4 2 4 4 3 4 4 5 6 6 4 4 4 4 4 3 2 1 0 1 3 4
6 6 7 7 7 8 7 7 8 8 7 7 7 7 7 7 8 8 8 8 8 8 9 9 8 8 8 8 8 9 10 11 12 21 23 20 19 16 9 9 9 9 8 6 5 5 6 6 7 14 21 22 22 24 24 18 8 5 5 2 1 3 5 4 3 5 3 3 4 5 6 6 6 5 6 6 6 6 5 5 4 3 3 4 5
6 6 7 7 7 7 7 7 7 6 7 7 7 7 7 7 8 8 7 7 9 9 9 8 8 8 8 7 8 9 10 14 12 16 22 20 17 19 12 10 12 9 9 8 7 6 6 7 7 13 21 23 23 23 26 17 10 6 5 8 11 10 4 2 2 4 4 6 5 6 6 6 7 6 6 6 6 7 5 5 4 4 5 5 6
6 6 6 7 7 7 7 7 7 6 7 7 7 7 8 7 8 8 8 8 9 9 9 9 8 9 8 7 7 8 9 9 14 13 18 22 22 18 21 18 20 12 10 9 8 7 6 7 9 16 20 21 19 23 20 8 7 5 10 12 10 9 6 2 4 4 4 4 3 5 4 6 5 6 6 6 6 5 5 5 6 6 6 6 6
5 5 6 6 7 7 7 7 7 6 7 6 6 7 8 8 7 8 7 8 8 8 8 8 8 9 9 9 8 7 7 6 9 16 15 21 22 20 17 22 22 13 11 8 8 8 8 8 11 20 21 23 19 19 13 7 4 7 9 9 9 7 3 5 3 2 4 3 3 4 5 4 4 4 5 5 6 6 7 6 7 7 7 7 8
5 6 6 7 7 6 7 7 7 6 7 6 6 7 7 8 7 8 7 7 7 8 8 8 8 8 9 9 8 7 6 6 7 11 18 19 21 22 22 22 20 21 13 10 11 10 16 23 24 22 21 21 22 18 5 6 7 8 9 9 7 3 3 2 1 2 4 2 2 3 4 4 4 5 6 6 6 5 5 6 5 7 7 9 8
6 6 6 6 7 7 7 7 7 6 7 6 5 6 7 7 7 7 7 7 7 8 8 8 8 8 9 8 8 8 8 7 8 8 10 12 13 18 20 19 19 20 19 15 21 24 23 22 23 21 17 16 11 1 4 4 8 9 8 7 4 4 2 3 1 2 2 3 2 4 5 4 5 5 5 5 5 6 5 6 6 6 5 6 7
5 6 7 6 6 6 6 6 6 6 6 5 5 5 6 5 6 7 6 7 7 7 7 8 8 8 8 9 9 9 8 8 8 8 9 9 9 9 9 9 13 15 11 10 12 12 14 16 13 18 15 17 5 6 6 6 5 5 4 4 4 4 3 1 1 1 3 2 4 4 5 5 4 4 5 5 6 6 5 6 6 6 6 6 6
5 5 6 5 5 5 5 8 9 6 7 6 6 6 6 5 6 7 7 7 8 8 8 8 8 8 9 9 9 9 8 7 8 8 9 9 10 10 9 8 8 8 9 9 10 11 13 15 15 6 3 2 4 4 5 4 4 4 5 3 4 4 5 5 4 1 2 3 4 4 5 5 5 6 5 5 6 6 5 6 5 7 6 6 6
4 5 5 5 6 5 5 5 5 6 6 6 6 5 5 6 7 7 6 5 6 8 8 9 8 7 7 8 9 9 8 8 8 13 16 18 16 13 10 9 9 8 13 20 15 11 11 10 3 5 4 4 4 5 5 5 4 3 3 5 4 5 4 3 5 6 5 4 5 4 6 5 6 4 5 5 6 6 6 5 6 6 6 4 7
4 5 5 5 5 5 5 5 5 6 6 7 7 8 8 10 9 7 7 12 17 17 15 10 10 9 8 7 6 9 9 10 19 23 22 22 22 21 19 20 19 16 18 22 13 6 7 7 6 6 6 6 6 5 6 5 6 6 6 5 5 5 4 3 4 5 5 4 4 5 6 6 6 6 5 6 6 5 6 6 6 5 5 6 7
4 5 5 5 6 6 5 6 6 5 6 6 7 8 9 7 9 14 14 14 16 17 17 18 19 17 13 9 9 17 19 20 21 21 22 22 22 21 20 20 19 19 20 13 7 5 6 6 6 6 6 5 4 5 4 5 4 4 6 6 5 4 6 5 5 5 6 5 5 5 5 6 6 6 6 6 6 7 5 4 4 6 6 6 7
4 5 5 5 6 6 5 5 6 6 6 6 6 7 8 10 10 7 11 15 16 17 17 17 17 17 18 16 14 9 13 18 20 21 21 22 20 20 20 20 19 19 20 11 5 6 5 5 6 6 6 6 5 5 4 6 5 5 6 6 7 5 5 7 6 4 6 6 6 6 6 6 6 6 6 6 7 6 5 6 5 6 6 5 6
4 5 4 5 5 7 5 5 5 6 6 7 7 6 7 8 11 13 10 9 13 15 16 15 15 16 18 19 19 17 17 18 21 21 21 21 20 19 20 19 17 18 16 6 4 6 5 6 6 5 5 6 7 6 7 5 6 7 5 6 7 7 6 6 6 6 6 6 6 6 6 6 6 7 7 7 6 7 6 6 6 5 5 6 7
4 3 4 5 5 5 5 5 6 6 6 6 6 6 6 6 8 9 11 12 12 10 9 11 13 15 17 18 18 18 19 20 20 20 20 19 20 19 18 13 14 14 9 6 6 6 7 7 7 6 6 6 7 7 7 7 6 6 7 6 7 6 7 6 5 6 6 6 6 6 5 6 6 5 6 6 6 5 6 7 6 6 6 6 7
4 5 8 6 4 5 5 5 5 6 6 6 6 6 7 7 7 7 8 9 10 11 12 12 12 13 14 14 15 18 18 19 20 19 19 19 18 19 15 8 9 8 7 4 5 6 6 6 7 7 7 7 7 7 7 6 7 6 6 7 7 7 7 6 6 5 6 6 6 6 6 6 6 6 5 6 6 6 6 6 6 6 6 7 7
4 4 4 6 5 5 5 5 5 6 6 6 6 6 7 7 8 7 7 7 8 9 10 9 9 11 17 16 16 16 17 19 19 19 18 18 17 15 8 8 7 7 7 7 6 7 6 7 6 7 7 6 7 7 7 7 7 7 7 6 7 7 7 7 7 6 6 6 7 7 6 6 5 6 5 6 6 7 6 6 6 6 6 7 6
4 5 5 5 5 5 6 6 5 6 6 7 6 6 6 6 7 6 7 7 8 8 9 10 10 10 8 7 10 14 17 17 18 17 16 15 15 8 4 6 7 7 8 7 7 6 7 7 7 7 7 7 7 7 7 7 7 7 6 7 7 7 7 6 8 7 6 6 6 6 5 7 6 5 5 6 6 6 6 6 6 7 8 9 10
4 5 5 5 5 5 5 6 6 7 7 5 5 5 6 6 6 6 7 7 8 8 9 10 8 9 10 11 11 9 12 15 15 11 8 7 7 6 6 5 6 7 8 7 7 6 8 8 7 7 7 7 8 7 7 7 7 7 7 7 7 7 10 10 10 8 7 7 7 7 6 6 6 6 5 6 6 6 6 7 6 6 7 8 6
4 6 9 10 7 5 5 5 6 6 6 6 5 6 7 7 6 6 6 6 7 8 8 8 8 8 9 9 9 10 10 9 9 9 10 8 7 6 6 6 6 7 7 7 7 7 7 8 8 7 7 7 7 7 7 7 7 7 7 7 7 7 7 7 7 7 6 6 7 6 6 6 6 6 5 6 6 6 6 6 6 6 7 7 6
5 5 6 9 7 7 6 7 6 5 7 6 6 6 6 7 6 7 7 7 8 8 7 8 9 9 9 8 8 9 9 9 9 9 9 9 9 8 6 7 7 7 8 8 7 7 7 8 7 7 8 7 7 8 7 7 7 7 7 6 7 8 8 7 7 7 7 6 6 6 6 7 6 6 5 6 6 6 6 7 7 6 6 7 8
5 5 5 6 6 6 6 6 6 5 5 6 6 6 6 7 7 7 6 7 7 8 8 8 9 9 8 10 16 15 9 9 9 8 9 9 8 8 8 7 7 8 8 7 8 7 7 8 8 8 7 7 7 7 7 7 7 7 7 7 7 7 8 7 7 7 7 7 7 7 6 6 6 5 6 6 6 6 6 6 6 7 7 7 7
5 5 5 6 6 5 5 7 7 7 6 7 6 6 7 7 6 6 7 7 8 8 8 9 9 8 10 16 15 16 10 7 7 8 8 8 8 8 8 8 7 7 7 8 8 8 8 8 8 8 8 8 8 7 7 7 7 7 7 7 7 7 7 7 7 7 7 7 7 7 7 6 6 6 7 7 6 6 6 6 6 6 6 7 7
5 4 5 6 5 5 5 6 6 6 6 6 6 5 7 6 6 7 7 8 7 7 8 9 9 9 9 11 13 13 7 7 6 8 8 8 8 8 8 8 8 8 8 8 8 7 8 8 8 8 8 8 8 8 8 8 7 7 7 7 8 8 8 8 7 7 6 7 7 7 7 7 7 6 6 6 6 6 6 7 6 6 7 7 7
4 5 6 5 6 5 6 4 5 6 5 7 7 7 7 6 6 6 6 7 7 7 7 8 8 9 9 10 9 8 7 7 7 7 8 8 8 8 8 8 8 8 8 8 7 7 7 8 8 8 8 8 8 8 8 8 7 7 8 8 7 8 8 8 8 7 7 7 7 7 7 6 6 6 6 7 6 6 7 6 6 6 6 6 6
4 5 5 6 5 5 6 5 5 6 7 7 6 6 7 5 6 6 6 7 8 8 7 8 8 8 9 9 8 8 8 8 8 8 8 8 8 9 8 8 8 9 8 8 8 7 7 8 8 9 9 8 8 7 7 7 7 7 7 8 8 8 8 9 8 8 7 8 7 7 7 7 7 6 6 6 6 6 7 6 6 7 7 7 7
5 5 6 5 6 7 7 6 7 5 6 6 6 7 7 6 6 6 7 7 7 7 8 8 7 7 8 8 8 9 8 8 8 8 9 8 8 8 8 8 8 8 8 8 8 8 8 8 8 8 9 9 9 8 7 7 7 7 7 7 8 9 9 8 8 8 8 8 8 8 8 7 7 7 8 7 6 6 7 7 6 6 7 8 8
4 4 5 6 6 7 7 7 5 6 6 6 6 6 7 7 7 7 8 8 8 8 7 7 7 8 8 8 8 8 9 8 8 9 9 9 9 9 9 9 9 9 8 8 8 8 8 8 8 8 9 9 9 9 8 7 7 7 7 7 7 8 8 8 8 8 8 8 8 8 8 8 8 8 8 8 7 7 7 7 7 8 8 7 8
6 6 5 6 5 6 6 6 6 7 7 7 6 7 7 7 7 7 7 7 7 7 7 7 7 7 8 8 8 8 8 8 8 8 8 8 8 8 9 9 9 9 9 9 8 8 8 8 8 8 8 9 9 8 8 8 7 7 7 7 7 8 10 11 9 9 8 8 8 9 9 9 8 8 8 8 7 7 7 7 7 7 7 7 8
5 5 5 5 5 6 6 6 7 6 7 6 7 7 7 7 7 7 7 7 7 7 7 7 8 8 7 8 8 8 8 9 8 8 8 8 8 8 9 9 9 9 9 9 9 9 8 8 8 8 8 8 8 8 8 8 8 7 7 7 8 13 15 15 12 10 11 10 9 8 8 8 9 8 8 7 8 7 7 8 7 8 7 7 8
5 5 5 6 6 6 7 6 6 6 7 6 6 7 7 7 7 7 7 7 7 7 7 7 7 7 8 8 9 9 8 8 9 9 9 9 9 9 9 9 9 9 9 9 9 9 8 8 8 8 8 8 8 8 8 8 8 8 8 9 13 17 17 18 18 17 12 7 7 7 7 8 8 8 8 8 8 8 8 8 8 8 8 8 8
6 6 6 6 6 6 6 6 6 6 6 6 6 6 7 7 7 7 7 7 8 8 8 7 8 8 8 7 8 8 8 8 8 8 8 9 9 9 9 9 10 10 10 9 9 9 8 8 8 8 8 8 8 8 8 8 8 9 11 17 19 19 18 17 11 12 15 13 8 7 7 7 8 8 7 7 7 7 8 8 8 7 7 7 7
Wind_Direction
32 28 29 20 21 20 17 16 13 15 38 36 36 35 31 28 25 21 19 12 20 8 11 5 6 1 3 0 4 358 357 356 351 0 350 344 345 337 337 337 337 332 328 327 325 329 323 325 319 320 321 319 317 322 315 307 315 306 293 294 282 270 269 266 278 288 290 271 252 303 333 326 308 331 347 318 353 339 0 340 16 349 349 339 334
26 23 24 17 22 23 27 28 29 33 38 34 30 30 27 24 20 13 22 7 14 8 7 359 2 358 5 358 359 358 353 353 350 352 345 336 339 335 331 330 328 323 323 318 316 319 318 314 310 315 313 314 314 311 301 311 307 298 302 297 294 291 283 279 271 279 288 299 262 264 284 269 284 295 279 303 308 317 322 299 299 276 302 315 310
22 20 20 15 25 32 35 33 32 32 35 32 26 23 17 16 17 10 12 4 4 10 0 357 359 357 3 353 352 353 349 349 348 344 336 332 327 326 323 325 319 314 315 307 304 302 309 303 311 311 311 316 310 302 300 300 292 308 304 303 297 292 290 280 277 273 281 285 291 290 284 272 262 280 266 218 271 292 304 303 301 300 284 284 297
21 18 19 17 28 34 34 33 30 29 28 23 23 18 13 11 9 9 3 5 355 2 359 350 359 352 356 349 347 350 344 343 339 335 330 326 321 318 317 312 307 303 298 298 296 294 290 294 297 305 317 310 304 305 302 300 318 307 299 294 288 290 285 280 271 273 277 285 287 288 285 289 278 274 270 259 263 273 272 280 292 292 296 293 288
21 18 15 17 29 31 31 30 28 25 25 18 17 13 9 6 5 2 356 358 347 352 349 346 349 349 349 340 340 342 339 336 334 328 325 319 315 307 303 300 296 291 285 282 282 282 281 281 286 309 304 301 300 297 297 305 295 294 290 288 288 282 279 277 278 283 286 281 290 287 284 272 278 276 277 276 270 260 257 260 261 276 291 312 354
16 18 8 13 28 27 25 27 22 18 18 16 10 10 3 1 359 356 348 347 338 341 342 337 341 341 340 330 338 331 330 330 328 324 321 318 311 302 290 284 281 279 277 273 270 268 269 275 295 292 288 286 288 292 288 302 315 322 317 313 304 284 276 268 269 266 268 275 283 293 290 286 283 272 256 256 261 267 286 283 295 312 24 354 328
11 13 2 14 37 27 26 24 23 14 14 12 3 6 0 353 354 347 342 338 331 334 335 332 334 341 328 335 333 326 324 322 321 316 317 314 309 302 296 290 279 271 265 265 263 265 273 283 280 273 273 275 276 291 335 352 320 324 320 316 324 325 325 317 296 271 258 264 269 270 279 276 271 274 273 203 322 304 164 298 340 280 74 297 315
5 8 1 28 30 27 24 17 21 7 8 7 359 0 352 351 348 340 335 336 332 334 328 333 335 334 328 335 327 327 325 320 309 309 303 296 291 289 289 278 288 290 294 297 286 279 275 265 265 273 276 294 329 319 320 309 296 302 295 310 310 309 309 305 312 309 301 286 275 274 265 274 276 220 236 272 254 297 277 199 292 298 316 297 298
4 3 5 36 28 24 16 15 9 2 1 2 356 353 350 345 343 338 336 333 334 326 327 337 330 327 330 331 328 329 324 317 315 314 298 278 271 278 277 292 295 290 283 278 273 265 266 313 7 344 321 314 308 306 298 295 291 281 280 286 293 290 288 289 288 291 294 295 294 294 297 295 290 293 5 274 247 274 5 23 252 298 281 347 316
6 356 17 36 29 17 15 14 5 358 358 357 351 347 343 342 338 336 334 333 328 322 334 333 324 329 332 328 334 327 324 316 318 311 308 310 307 305 297 283 278 272 275 280 289 347 11 333 315 312 305 299 295 294 293 288 289 287 270 269 269 274 273 272 272 271 274 278 278 285 283 280 282 315 272 317 0 10 332 304 298 298 308 321 275
1 4 22 25 25 13 10 8 357 1 354 351 345 344 342 340 336 332 334 333 328 330 336 328 332 334 330 331 331 329 327 328 322 322 321 319 316 314 311 305 304 312 314 327 3 324 326 317 307 300 301 301 297 292 292 293 286 286 290 289 284 274 270 273 265 256 262 267 270 271 271 270 273 265 170 248 322 297 263 285 281 274 285 286 296
359 30 22 18 20 10 6 1 355 355 351 348 343 341 340 337 335 333 334 330 330 332 326 327 331 325 328 326 324 323 327 323 324 322 320 318 321 324 316 311 313 313 326 336 320 308 296 287 282 285 286 278 274 271 273 275 276 276 277 276 278 278 272 263 265 267 260 261 264 264 261 251 259 269 269 257 242 263 270 265 266 255 244 261 260
28 31 18 14 16 4 359 357 351 351 350 345 340 341 335 334 332 335 330 327 326 326 327 326 325 327 324 322 322 323 324 320 321 318 317 318 319 321 323 323 324 328 319 311 303 297 290 287 283 269 258 268 274 272 268 267 271 272 273 274 273 274 275 275 269 264 267 270 269 267 261 243 249 247 235 194 241 229 250 260 248 253 247 245 265
38 22 16 6 9 356 355 352 354 349 346 341 340 338 334 334 334 329 325 328 328 326 324 328 327 325 325 326 322 320 320 316 317 316 317 318 318 322 325 323 323 321 312 304 300 298 293 292 295 292 281 273 267 270 265 262 265 270 270 269 267 267 269 269 270 267 265 261 259 261 265 247 231 248 250 234 239 232 243 246 254 89 317 262 265
26 21 8 359 0 351 355 350 352 346 340 340 337 335 333 332 334 331 329 329 328 323 331 331 328 331 329 324 319 315 313 314 317 317 317 318 318 329 329 330 328 328 336 338 328 324 324 320 311 301 295 284 271 266 262 260 260 261 259 261 261 260 257 260 261 261 256 248 242 249 256 249 236 242 255 257 211 243 30 133 38 176 241 302 351
18 12 0 353 355 349 356 349 346 342 338 338 336 333 336 334 331 327 328 325 321 328 337 328 326 323 321 318 314 312 310 316 318 318 318 317 323 331 323 324 321 324 321 318 314 316 319 318 315 312 307 297 284 285 283 272 255 253 258 258 258 258 255 250 260 261 257 248 241 243 243 251 257 245 311 89 81 63 57 72 36 54 58 354 301
6 2 352 347 351 352 353 345 341 338 337 337 335 336 334 330 330 325 330 328 334 331 322 324 320 319 317 318 314 310 312 319 322 321 318 317 331 330 321 319 322 314 314 308 305 303 304 305 313 316 312 306 294 295 289 286 274 266 266 269 271 278 320 348 344 341 342 4 17 33 38 32 26 22 21 40 62 59 52 26 337 58 30 325 299
358 355 347 346 348 351 344 341 335 333 336 334 332 331 328 326 331 331 338 330 330 323 325 324 322 321 319 315 313 316 317 322 326 323 317 319 325 330 324 318 311 312 306 305 302 298 296 316 320 316 314 312 312 307 295 290 293 299 334 354 23 50 357 342 7 353 5 10 9 13 24 24 21 20 22 27 31 42 86 46 275 85 333 237 263
354 353 344 345 344 342 336 337 334 332 332 328 327 324 325 331 329 333 329 323 321 322 323 320 318 318 313 314 320 325 318 321 324 323 322 324 328 332 324 311 316 308 304 303 297 298 312 318 318 318 315 315 316 309 307 302 283 299 297 96 86 59 359 12 28 8 1 5 356 4 2 10 15 18 11 21 29 26 105 148 246 91 267 271 260
351 346 340 339 337 335 334 335 330 332 323 325 320 323 321 328 331 332 326 325 323 322 320 317 317 317 316 322 322 323 320 318 321 325 326 325 329 336 326 331 319 306 301 293 307 323 320 319 318 319 317 316 315 313 304 305 84 351 343 180 122 43 348 36 11 62 356 16 346 357 342 334 353 7 7 9 7 4 24 18 40 309 254 263 257
347 341 336 334 334 334 334 331 329 324 319 316 319 323 322 328 328 327 325 323 323 321 321 319 317 317 319 319 321 320 316 318 319 327 327 329 327 334 334 330 316 311 308 321 322 323 324 316 315 313 312 311 309 305 296 312 13 13 337 122 146 129 79 68 12 29 22 5 4 355 348 346 346 354 356 357 352 352 358 354 356 337 293 276 276
339 335 335 337 334 335 330 329 326 321 317 320 324 326 323 330 326 325 324 324 324 323 322 319 320 318 318 319 314 314 314 317 319 324 329 329 325 329 336 326 323 320 328 324 320 317 307 312 307 306 307 306 305 296 300 320 355 1 327 32 35 48 62 74 65 29 22 15 0 0 350 348 341 342 345 346 330 334 340 322 316 303 279 237 240
337 333 332 334 335 332 329 331 326 325 323 325 330 328 326 331 328 326 325 325 322 322 321 322 323 320 316 316 314 312 312 313 319 323 327 330 327 325 327 330 327 331 321 318 314 303 303 302 296 300 302 300 295 294 308 342 353 335 2 33 43 48 49 31 32 39 20 4 9 351 339 333 331 324 324 317 309 312 308 299 291 286 283 273 260
329 333 336 335 334 335 332 330 325 323 324 328 333 328 330 329 329 322 327 323 321 323 321 323 321 318 319 317 316 312 310 312 316 322 326 327 325 322 326 330 331 329 329 318 319 315 312 302 298 304 305 302 301 305 327 349 356 20 44 41 49 46 52 35 37 34 18 359 359 334 320 303 308 306 299 295 303 297 295 288 282 277 271 272 269
336 338 339 334 333 330 329 327 324 321 327 332 336 329 328 328 329 319 325 320 320 321 319 320 318 316 317 315 314 316 312 316 315 316 320 320 320 321 323 326 330 330 327 324 317 309 307 307 307 306 304 304 306 309 4 13 45 50 52 49 41 55 43 53 40 49 13 335 314 294 291 286 284 281 288 294 290 300 295 290 280 274 270 268 266
340 335 335 331 329 330 330 325 321 321 327 327 326 321 324 324 323 317 319 318 320 319 315 317 316 317 314 314 317 320 321 319 314 311 310 311 311 309 314 324 326 326 322 315 311 308 306 305 304 304 305 309 307 21 22 19 49 47 43 47 34 31 39 40 34 34 334 308 300 297 286 289 295 284 284 288 296 287 291 289 298 290 284 285 288
334 333 331 326 323 327 325 316 322 327 323 320 319 319 320 316 314 312 315 318 319 315 313 317 317 316 319 319 321 319 320 316 312 309 306 304 298 301 311 318 322 320 312 302 301 298 295 299 297 299 304 306 347 50 48 20 31 23 19 19 20 5 346 349 7 349 310 302 298 286 284 280 285 309 301 300 290 284 275 282 289 286 291 282 280
332 323 321 319 318 316 316 320 327 319 317 318 318 319 316 313 309 310 318 317 317 315 318 317 317 318 318 320 318 319 314 313 310 306 307 309 317 318 318 322 317 310 308 302 304 308 308 299 295 307 338 8 9 12 23 23 27 15 8 358 6 347 341 341 347 319 279 257 269 284 291 300 303 292 295 291 282 283 284 284 282 290 288 292 292
327 317 317 324 319 316 315 313 313 316 310 315 308 299 296 304 310 306 299 289 304 316 316 313 312 309 312 317 319 315 312 311 306 315 319 321 320 322 325 322 318 317 320 323 325 327 325 312 333 357 19 9 16 3 355 5 2 8 360 343 354 344 330 349 333 313 301 309 302 296 293 296 289 286 289 293 284 283 286 285 276 275 287 282 279
325 321 320 321 314 315 314 315 315 314 315 316 316 313 307 314 315 313 307 317 320 320 320 319 319 320 319 309 309 311 310 307 314 319 320 320 320 322 322 320 322 323 323 327 331 338 340 348 3 357 359 3 6 3 350 347 345 345 341 339 339 331 317 313 299 294 298 297 295 301 290 292 289 290 286 285 289 284 278 284 288 287 294 287 288
320 316 325 319 313 312 315 315 313 313 313 317 315 315 314 312 311 314 313 314 318 319 321 322 324 325 324 318 315 313 311 313 317 319 320 321 323 322 321 322 323 324 325 330 338 348 337 347 341 347 345 342 353 339 336 333 328 333 319 320 312 311 308 304 294 296 299 298 295 284 284 283 282 285 286 284 290 290 289 277 278 287 278 281 285
312 307 309 304 308 311 310 309 310 316 315 315 314 316 316 317 317 310 317 318 317 318 318 320 322 324 323 321 319 311 313 316 319 319 321 322 321 321 323 324 324 326 323 346 351 331 337 333 331 336 336 337 323 326 321 319 311 308 309 317 309 302 300 298 298 307 294 293 285 283 278 279 277 282 280 281 287 291 296 296 286 283 284 279 275
306 305 300 304 304 307 313 311 314 314 314 318 318 317 317 321 322 322 322 317 314 313 314 316 318 320 320 320 319 317 317 319 320 322 322 320 319 323 326 325 329 328 329 346 337 315 321 319 314 313 322 316 308 307 302 300 298 299 294 290 292 295 291 284 302 300 280 274 272 272 276 276 282 281 284 286 290 289 290 290 289 284 284 288 284
281 272 288 293 304 305 307 307 308 308 306 304 299 306 308 310 309 309 317 324 327 320 312 314 319 321 321 320 318 319 320 322 321 321 319 319 323 326 327 328 328 327 337 324 317 312 310 312 308 306 305 302 300 303 301 299 297 292 291 280 279 283 287 289 296 282 280 276 276 275 277 275 274 281 282 281 272 276 283 283 289 290 289 276 284
317 310 315 315 306 300 298 298 299 300 302 302 302 303 304 306 306 308 313 316 317 318 318 320 322 324 319 316 315 317 320 321 321 320 319 323 327 328 332 336 330 328 330 322 304 294 295 296 297 294 296 298 296 294 290 289 289 287 284 288 288 289 290 291 283 280 278 279 274 271 267 267 267 263 271 285 292 288 281 282 281 276 278 287 283
319 310 304 308 304 294 294 290 292 295 293 292 291 299 304 307 310 308 306 303 305 308 306 307 307 312 310 311 311 315 319 319 319 319 320 324 327 334 332 321 315 309 304 303 301 299 291 284 284 289 289 284 284 283 276 281 278 279 278 281 285 285 288 286 284 282 276 269 266 269 274 271 270 277 280 274 265 267 269 271 278 277 278 275 279
311 305 299 296 289 285 287 288 289 289 295 303 307 307 304 301 303 301 302 303 304 301 301 308 316 315 311 299 313 320 317 315 316 318 319 321 324 327 303 293 290 295 296 294 299 296 297 290 288 286 286 284 283 280 284 282 281 279 282 278 278 281 278 276 273 266 272 275 273 274 274 275 273 268 262 271 276 267 268 269 270 279 283 288 295
274 276 278 278 286 291 294 298 296 303 305 301 301 303 300 301 301 303 305 305 305 309 310 311 312 310 315 315 325 321 315 314 314 311 312 318 325 322 305 292 290 289 291 291 285 286 285 287 285 282 282 282 280 282 282 281 281 280 279 282 279 271 278 282 286 288 283 279 278 276 274 273 268 267 264 260 268 273 277 273 275 279 283 286 284
296 294 300 309 306 299 298 299 305 307 306 307 306 309 309 309 308 307 305 304 305 304 301 303 303 305 304 310 318 313 315 322 332 327 324 321 311 299 298 297 293 291 283 283 286 286 283 286 286 281 279 277 279 277 278 279 280 278 276 278 280 280 281 277 277 272 270 266 271 269 268 269 269 264 253 255 263 263 268 275 276 274 279 281 278
301 302 301 306 307 304 305 304 301 305 301 309 308 308 306 305 302 304 305 308 306 305 303 305 305 302 304 311 308 318 322 318 316 316 316 314 314 310 305 300 297 291 294 293 290 285 287 284 282 282 281 279 275 276 271 272 273 274 276 273 274 280 275 272 270 273 271 269 268 271 267 268 266 265 263 250 258 261 265 269 269 268 265 275 285
283 288 295 298 301 306 306 305 301 296 302 300 297 301 295 296 298 299 300 297 298 300 301 298 295 296 297 301 310 318 314 309 309 308 305 304 304 305 304 296 293 292 291 287 288 287 282 285 286 283 280 278 275 273 275 272 273 274 273 272 270 269 276 273 268 265 267 267 266 268 267 264 265 265 268 265 260 262 259 262 270 274 280 280 282
286 294 301 301 306 304 303 300 300 301 300 296 296 294 295 297 299 300 297 298 298 298 299 300 297 299 299 306 311 318 315 296 299 297 297 297 296 295 292 289 284 279 281 284 286 289 288 285 284 284 284 284 282 279 278 274 271 270 271 272 272 274 274 275 271 266 262 265 265 262 263 261 261 250 253 262 262 260 266 267 265 271 272 275 278
278 281 283 295 296 295 293 293 298 302 300 302 299 294 295 297 297 297 298 295 295 297 298 301 303 307 306 309 312 314 306 296 291 295 295 296 296 295 295 294 291 287 283 280 279 275 278 279 281 281 279 278 278 277 277 277 279 277 276 274 274 275 274 276 276 271 264 258 260 258 259 262 263 263 265 265 265 263 262 266 272 272 273 276 278
283 288 289 285 287 290 283 283 292 289 290 289 292 295 296 297 295 295 296 297 297 295 296 296 299 306 308 312 314 314 308 306 303 301 300 301 299 299 298 297 297 294 293 289 285 280 277 280 280 280 277 275 273 269 266 266 265 267 269 274 273 273 273 274 272 272 270 269 266 266 264 259 259 259 260 264 263 267 268 267 268 270 273 272 272
283 284 288 296 294 291 292 288 281 286 291 300 300 297 294 293 296 297 296 296 296 297 296 296 300 303 306 309 313 312 308 308 304 304 302 301 301 300 301 300 299 299 298 296 292 289 286 284 284 286 288 285 280 277 275 270 265 259 259 261 270 272 273 270 270 270 271 271 272 272 269 265 264 259 258 259 258 259 265 266 266 274 279 278 282
276 279 285 284 290 290 291 291 291 291 293 294 297 302 302 301 293 292 293 292 293 295 297 300 301 300 299 303 305 306 306 306 305 302 301 301 301 301 300 299 299 298 297 295 297 295 291 289 289 290 290 291 292 288 283 279 274 270 265 258 258 263 265 268 267 268 265 263 266 266 266 267 263 258 257 259 259 255 258 264 263 262 266 275 274
276 277 279 279 280 285 285 288 294 294 293 293 293 292 295 297 297 296 294 289 294 298 297 299 304 304 305 304 305 304 305 305 304 306 303 302 300 301 301 302 304 303 301 300 297 297 295 294 291 291 290 290 291 291 288 285 279 274 270 265 263 263 266 264 263 260 259 260 258 259 262 264 266 266 263 263 265 265 267 268 268 272 272 269 273
273 275 273 276 279 283 285 290 289 291 292 291 290 290 290 293 296 295 298 300 298 298 299 297 297 298 301 301 300 300 300 300 300 299 301 301 302 302 304 305 306 307 306 305 304 301 300 298 297 295 294 293 293 292 292 288 287 280 278 273 269 264 263 263 267 264 260 257 254 255 258 261 264 264 263 261 261 263 264 270 271 272 272 274 272
271 268 275 277 277 274 281 286 287 288 288 291 294 292 293 294 292 293 293 292 295 294 295 298 298 301 300 299 300 300 300 302 302 304 304 304 303 304 306 307 307 307 308 308 307 307 304 303 299 299 296 296 293 294 295 296 295 295 290 287 280 269 268 267 267 271 267 262 265 262 260 260 264 267 267 266 266 266 268 272 275 276 277 273 272
266 267 268 273 273 276 274 272 272 278 280 278 280 286 290 290 292 294 296 296 296 296 294 294 295 296 299 303 306 306 306 307 307 306 306 305 307 307 310 310 311 311 311 310 310 309 308 306 307 304 304 302 302 301 301 303 303 302 303 293 293 302 308 308 306 300 296 287 277 273 272 271 271 271 270 270 271 270 270 269 269 267 269 271 272
265 268 266 265 267 273 276 278 279 276 274 277 278 280 286 288 290 290 293 293 293 295 296 296 297 298 295 293 294 299 302 300 300 301 302 304 309 311 312 313 314 314 313 311 312 312 311 312 312 312 309 309 308 308 307 304 306 298 299 308 315 314 310 309 303 298 295 293 279 270 262 264 262 266 264 264 262 260 261 267 268 266 267 268 272